Probability
0 0 0 0 0 0 0 0 0 0 0 0 0 0 0 0 0 0 0 0 0 0 0 0 0 0 0 0 0 0 0 0 0 0 0 0 0 0 0 0 0 0 0 0 0 0 0 0 0
0 0 0 0 0 0 0 0 0 0 0 0 0 0 0 0 0 0 0 0 0 0 0 0 0 0 0 0 0 0 0 0 0 0 0 0 0 0 0 0 0 0 0 0 0 0 0 0 0
0 0 0 0 0 0 0 0 0 0 0 0 0 0 0 0 0 0 0 0 0 0 0 0 0 0 0 0 0 0 0 0 0 0 0 0 0 0 0 0 0 0 0 0 0 0 0 0 0
0 0 0 0 0 0 0 0 0 0 0 0 0 0 0 0 0 0 0 0 0 0 0 0 0 0 0 0 0 0 0 0 0 0 0 0 0 0 0 0 0 0 0 0 0 0 0 0 0
0 0 0 0 0 0 0 0 0 0 0 0 0 0 0 0 0 0 0 0 0 0 0 0 0 0 0 0 0 0 0 0 0 0 0 0 0 0 0 0 0 0 0 0 0 0 0 0 0
0 0 0 0 0 0 0 0 0 0 0 0 0 0 0 0 0 0 0 0 0 0 0 0 0 0 0 0 0 0 0 0 0 0 0 0 0 0 0 0 0 0 0 0 0 0 0 0 0
0 0 0 0 0 0 0 0 0 0 0 0 0 0 0 0 0 0 0 0 0 0 0 0 0 0 0 0 0 0 0 0 0 0 0 0 0 0 0 0 0 0 0 0 0 0 0 0 0
0 0 0 0 0 0 0 0 0 0 0 0 0 0 0 0 0 0 0 0 0 0 0 0 0 0 0 0 0 0 0 0 0 0 0 0 0 0 0 0 0 0 0 0 0 0 0 0 0
0 0 0 0 0 0 0 0 0 0 0 0 0 0 0 0 0 0 0 0 0 0 0 0 0 0 0 0 0 0 0 0 0 0 0 0 0 0 0 0 0 0 0 0 0 0 0 0 0
0 0 0 0 0 0 0 0 0 0 0 0 0 0 0 0 0 0 0 0 0 0 0 0 0 0 0 0 0 0 0 0 0 0 0 0 0 0 0 0 0 0 0 0 0 0 0 0 0
0 0 0 0 0 0 0 0 0 0 0 0 0 0 0 0 0 0 0 0 0 0 0 0 0 0 0 0 0 0 0 0 0 0 0 0 0 0 0 0 0 0 0 0 0 0 0 0 0
0 0 0 0 0 0 0 0 0 0 0 0 0 0 0 0 0 0 0 0 0 0 0 0 0 0 0 0 0 0 0 0 0 0 0 0 0 0 0 0 0 0 0 0 0 0 0 0 0
0 0 0 0 0 0 0 0 0 0 0 0 0 0 0 0 0 0 0 0 0 0 0 0 0 0 0 0 0 0 0 0 0 0 0 0 0 0 0 0 0 0 0 0 0 0 0 0 0
0 0 0 0 0 0 0 0 0 0 0 0 0 0 0 0 0 0 0 0 0 0 0 0 0 0 0 0 0 0 0 0 0 0 0 0 0 0 0 0 0 0 0 0 0 0 0 0 0
0 0 0 0 0 0 0 0 0 0 0 0 0 0 0 0 0 0 0 0 0 0 0 0 0 0 0 0 0 0 0 0 0 0 0 0 0 0 0 0 0 0 0 0 0 0 0 0 0
0 0 0 0 0 0 0 0 0 0 0 0 0 0 0 0 0 0 0 0 0 0 0 0 0 0 0 0 0 0 0 0 0 0 0 0 0 0 0 0 0 0 0 0 0 0 0 0 0
0 0 0 0 0 0 0 0 0 0 0 0 0 0 0 0 0 0 0 0 0 0 0 0 0 0 0 0 0 0 0 0 0 0 0 0 0 0 0 0 0 0 0 0 0 0 0 0 0
0 0 0 0 0 0 0 0 0 0 0 0 0 0 0 0 0 0 0 0 0 0 0 0 0 0 0 0 0 0 0 0 0 0 0 0 0 0 0 0 0 0 0 0 0 0 0 0 0
0 0 0 0 0 0 0 0 0 0 0 0 0 0 0 0 0 0 0 0 0 0 0 0 0 0 0 0 0 0 0 0 0 0 0 0 0 0 0 0 0 0 0 0 0 0 0 0 0
0 0 0 0 0 0 0 0 0 0 0 0 0 0 0 0 0 0 0 0 0 0 0 0 0 0 0 0 0 0 0 0 0 0 0 0 0 0 0 0 0 0 0 0 0 0 0 0 0
0 0 0 0 0 0 0 0 0 0 0 0 0 0 0 0 0 0 0 0 0 0 0 0 0 0 0 0 0 0 0 0 0 0 0 0 0 0 0 0 0 0 0 0 0 0 0 0 0
0 0 0 0 0 0 0 0 0 0 0 0 0 0 0 0 0 0 0 0 0 0 0 0 0 0 0 0 0 0 0 0 0 0 0 0 0 0 0 0 0 0 0 0 0 0 0 0 0
0 0 0 0 0 0 0 0 0 0 0 0 0 0 0 0 0 0 0 0 0 0 0 0 0 0 0 0 0 0 0 0 0 0 0 0 0 0 0 0 0 0 0 0 0 0 0 0 0
0 0 0 0 0 0 0 0 0 0 0 0 0 0 0 0 0 0 0 0 0 0 0 0 0 0 0 0 0 0 0 0 0 0 0 0 0 0 0 0 0 0 0 0 0 0 0 0 0
0 0 0 0 0 0 0 0 0 0 0 0 0 0 0 0 0 0 0 0 0 0 0 0 0 0 0 0 0 0 0 0 0 0 0 0 0 0 0 0 0 0 0 0 0 0 0 0 0
0 0 0 0 0 0 0 0 0 0 0 0 0 0 0 0 0 0 0 0 0 0 0 0 0 0 0 0 0 0 0 0 0 0 0 0 0 0 0 0 0 0 0 0 0 0 0 0 0
0 0 0 0 0 0 0 0 0 0 0 0 0 0 0 0 0 0 0 0 0 0 0 0 0 0 0 0 0 0 0 0 0 0 0 0 0 0 0 0 0 0 0 0 0 0 0 0 0
0 0 0 0 0 0 0 0 0 0 0 0 0 0 0 0 0 0 0 0 0 0 0 0 0 0 0 0 0 0 0 0 0 0 0 0 0 0 0 0 0 0 0 0 0 0 0 0 0
0 0 0 0 0 0 0 0 0 0 0 0 0 0 0 0 0 0 0 0 0 0 0 0 0 0 0 0 0 0 0 0 0 0 0 0 0 0 0 0 0 0 0 0 0 0 0 0 0
0 0 0 0 0 0 0 0 0 0 0 0 0 0 0 0 0 0 0 0 0 0 0 0 0 0 0 0 0 0 0 0 0 0 0 0 0 0 0 0 0 0 0 0 0 0 0 0 0
Height
5884 5884 5885 5886 5887 5887 5886 5887 5886 5886 5886 5886 5886 5886 5886 5887 5887 5888 5886 5883 5882 5881 5880 5879 5877 5876 5874 5873 5871 5869 5868 5866 5864 5863 5861 5860 5858 5856 5855 5853 5852 5850 5849 5848 5846 5846 5845 5844 5844
5886 5886 5887 5888 5887 5887 5888 5887 5887 5887 5887 5887 5886 5886 5886 5885 5885 5884 5883 5882 5881 5880 5878 5877 5875 5873 5871 5870 5868 5866 5864 5862 5860 5858 5856 5854 5852 5850 5849 5847 5845 5844 5842 5841 5840 5838 5837 5836 5835
5888 5889 5890 5889 5889 5889 5889 5889 5888 5888 5887 5887 5887 5886 5885 5885 5884 5883 5882 5881 5879 5878 5876 5874 5872 5870 5869 5867 5865 5862 5860 5858 5856 5853 5851 5849 5847 5844 5842 5840 5838 5836 5834 5833 5831 5830 5829 5828 5827
5892 5892 5892 5891 5891 5891 5890 5890 5889 5888 5888 5887 5886 5885 5885 5884 5883 5881 5880 5879 5877 5876 5874 5872 5870 5868 5865 5863 5861 5858 5856 5853 5851 5848 5846 5843 5840 5838 5835 5833 5830 5828 5825 5823 5821 5819 5818 5817 5816
5894 5894 5894 5893 5892 5892 5891 5890 5889 5888 5887 5886 5885 5884 5883 5883 5881 5880 5878 5877 5875 5874 5871 5869 5867 5864 5862 5859 5856 5854 5851 5848 5845 5843 5840 5837 5834 5831 5828 5825 5822 5819 5816 5813 5810 5808 5806 5804 5802
5897 5896 5895 5894 5893 5892 5891 5890 5889 5888 5886 5885 5883 5882 5882 5881 5879 5878 5876 5874 5873 5870 5868 5865 5863 5860 5857 5854 5851 5848 5845 5842 5839 5836 5833 5830 5826 5823 5819 5816 5813 5809 5806 5802 5799 5796 5792 5790 5787
5898 5896 5895 5895 5893 5892 5891 5889 5887 5886 5885 5883 5881 5880 5879 5878 5877 5875 5874 5872 5870 5867 5864 5861 5858 5855 5852 5849 5846 5843 5840 5836 5833 5829 5826 5822 5818 5814 5810 5806 5802 5798 5794 5790 5786 5781 5777 5772 5768
5897 5897 5895 5893 5891 5890 5889 5887 5885 5884 5883 5881 5879 5879 5878 5877 5875 5873 5871 5869 5866 5864 5860 5857 5854 5851 5848 5844 5841 5838 5834 5830 5827 5822 5818 5814 5809 5805 5801 5796 5791 5787 5782 5777 5771 5766 5760 5754 5748
5896 5896 5893 5891 5890 5888 5887 5885 5884 5882 5881 5879 5878 5877 5876 5875 5873 5871 5868 5866 5863 5860 5856 5853 5850 5846 5843 5839 5836 5832 5828 5824 5819 5815 5810 5805 5801 5796 5790 5785 5780 5775 5769 5763 5756 5749 5742 5735 5726
5895 5893 5891 5889 5888 5886 5885 5883 5882 5881 5879 5878 5876 5875 5874 5872 5870 5868 5865 5862 5859 5856 5852 5848 5845 5841 5838 5834 5830 5825 5821 5816 5812 5807 5801 5796 5791 5786 5780 5774 5768 5762 5755 5748 5740 5732 5723 5714 5704
5893 5892 5890 5888 5886 5884 5883 5882 5880 5879 5877 5876 5875 5873 5871 5869 5867 5865 5862 5859 5855 5852 5848 5844 5840 5836 5832 5828 5824 5819 5814 5809 5804 5799 5793 5787 5781 5775 5769 5763 5756 5748 5741 5732 5724 5714 5704 5693 5681
5891 5890 5888 5886 5884 5883 5881 5880 5878 5877 5876 5874 5873 5871 5869 5867 5864 5862 5859 5855 5852 5848 5844 5840 5836 5832 5827 5822 5817 5812 5807 5802 5796 5791 5784 5778 5772 5765 5758 5751 5744 5736 5727 5718 5708 5696 5683 5669 5654
5889 5888 5887 5885 5883 5881 5879 5878 5876 5875 5873 5871 5869 5868 5866 5864 5862 5859 5856 5853 5849 5845 5841 5837 5832 5828 5822 5817 5812 5807 5801 5795 5789 5783 5776 5769 5762 5755 5748 5740 5731 5722 5713 5703 5691 5678 5663 5646 5627
5888 5887 5885 5883 5881 5880 5878 5876 5875 5874 5872 5869 5867 5865 5863 5861 5859 5857 5853 5850 5846 5842 5838 5833 5828 5823 5818 5812 5807 5801 5795 5789 5782 5775 5768 5761 5753 5745 5737 5728 5719 5709 5698 5686 5673 5657 5639 5619 5597
5886 5885 5884 5882 5880 5878 5877 5876 5874 5872 5870 5868 5866 5864 5862 5859 5857 5854 5850 5847 5843 5838 5834 5829 5824 5818 5813 5807 5801 5795 5789 5782 5775 5767 5760 5752 5743 5735 5726 5716 5706 5695 5682 5669 5653 5634 5612 5589 5566
5885 5884 5882 5881 5879 5877 5877 5875 5873 5870 5868 5866 5864 5862 5860 5857 5854 5851 5847 5843 5839 5835 5830 5825 5819 5814 5808 5802 5795 5789 5782 5774 5766 5758 5750 5741 5732 5723 5713 5703 5691 5679 5665 5649 5631 5609 5585 5561 5538
5883 5881 5880 5879 5877 5875 5874 5873 5871 5869 5866 5864 5862 5860 5857 5854 5851 5847 5844 5840 5835 5831 5826 5820 5814 5808 5802 5796 5789 5781 5774 5766 5758 5749 5740 5731 5721 5711 5700 5688 5676 5662 5646 5627 5606 5582 5558 5535 5514
5881 5879 5877 5876 5875 5873 5872 5871 5869 5867 5864 5862 5860 5857 5854 5851 5847 5844 5840 5836 5831 5826 5821 5815 5809 5803 5796 5789 5781 5774 5766 5757 5748 5739 5729 5719 5709 5697 5685 5673 5659 5643 5626 5605 5582 5558 5534 5511 5490
5878 5877 5876 5874 5872 5871 5870 5868 5866 5864 5862 5859 5857 5854 5851 5847 5844 5840 5835 5831 5826 5821 5815 5809 5803 5796 5789 5782 5774 5765 5757 5748 5739 5729 5718 5707 5696 5684 5671 5657 5641 5624 5605 5583 5560 5537 5514 5492 5470
5876 5874 5873 5871 5869 5868 5866 5865 5863 5861 5859 5856 5854 5851 5847 5843 5839 5835 5831 5826 5821 5816 5810 5803 5797 5790 5782 5774 5766 5757 5748 5739 5729 5718 5707 5695 5683 5670 5656 5641 5624 5606 5585 5563 5539 5517 5496 5476 5453
5872 5871 5869 5867 5866 5864 5863 5862 5860 5857 5855 5853 5850 5847 5843 5839 5835 5830 5826 5821 5816 5810 5804 5798 5790 5783 5775 5766 5758 5749 5739 5729 5719 5708 5696 5683 5670 5656 5641 5625 5608 5588 5567 5544 5522 5500 5479 5461 5442
5868 5866 5864 5863 5861 5860 5859 5857 5855 5853 5850 5848 5846 5842 5839 5835 5830 5826 5821 5816 5810 5804 5798 5791 5783 5776 5767 5759 5749 5740 5730 5720 5709 5697 5684 5671 5657 5643 5627 5610 5592 5572 5550 5528 5506 5485 5464 5445 5429
5863 5861 5860 5858 5856 5855 5853 5851 5852 5848 5845 5843 5841 5837 5834 5830 5825 5820 5815 5810 5804 5798 5791 5784 5776 5768 5759 5750 5741 5731 5721 5710 5699 5686 5673 5659 5645 5630 5614 5596 5578 5557 5536 5514 5492 5472 5452 5433 5415
5858 5856 5854 5852 5850 5850 5848 5845 5846 5843 5841 5838 5835 5831 5828 5824 5819 5814 5809 5803 5797 5790 5783 5776 5768 5760 5751 5742 5733 5723 5712 5701 5689 5676 5663 5648 5633 5617 5601 5583 5564 5544 5522 5501 5481 5461 5442 5423 5405
5854 5852 5849 5846 5844 5844 5841 5838 5841 5838 5835 5832 5829 5825 5821 5817 5812 5807 5802 5796 5789 5782 5775 5768 5761 5752 5743 5734 5724 5714 5703 5691 5679 5666 5652 5638 5622 5606 5589 5571 5552 5531 5511 5491 5471 5452 5434 5415 5398
5848 5846 5843 5840 5837 5836 5834 5831 5836 5832 5829 5825 5822 5819 5814 5810 5805 5800 5794 5788 5782 5775 5768 5760 5752 5744 5735 5725 5715 5705 5694 5682 5669 5656 5642 5627 5612 5595 5578 5560 5541 5521 5501 5481 5462 5443 5425 5408 5391
5843 5840 5837 5833 5829 5827 5826 5826 5828 5826 5822 5818 5815 5811 5807 5802 5797 5792 5787 5781 5774 5767 5759 5752 5744 5735 5726 5716 5706 5696 5684 5672 5660 5647 5633 5618 5602 5585 5568 5550 5532 5512 5492 5473 5454 5436 5418 5401 5385
5836 5834 5831 5826 5822 5818 5818 5818 5821 5819 5815 5811 5807 5803 5799 5794 5789 5784 5779 5773 5766 5758 5751 5743 5735 5726 5717 5707 5697 5686 5675 5663 5651 5638 5624 5608 5593 5576 5559 5541 5523 5504 5484 5465 5448 5430 5413 5396 5380
5830 5828 5823 5819 5816 5811 5807 5812 5814 5812 5807 5803 5799 5793 5789 5785 5781 5775 5770 5764 5757 5750 5742 5733 5725 5716 5707 5698 5687 5677 5666 5654 5642 5629 5615 5599 5583 5567 5550 5533 5515 5496 5477 5459 5442 5425 5408 5392 5376
5823 5820 5817 5813 5809 5803 5798 5803 5809 5804 5799 5794 5789 5784 5779 5775 5771 5766 5760 5754 5748 5740 5732 5724 5715 5706 5697 5688 5678 5668 5657 5645 5633 5620 5606 5591 5575 5559 5542 5525 5507 5489 5471 5453 5437 5420 5404 5388 5373
Wind_Speed
6 5 5 4 5 6 7 8 9 11 12 12 12 10 9 8 6 6 6 7 8 9 10 11 12 13 14 15 16 17 18 19 21 22 24 25 26 28 29 30 31 32 34 35 36 37 38 39 40
11 11 11 10 10 11 11 11 12 11 11 10 9 7 6 5 5 6 8 9 10 11 11 12 13 14 15 17 18 19 21 23 24 26 27 28 29 30 32 33 33 34 35 36 38 39 40 42 43
15 15 15 14 13 12 12 12 11 9 8 7 5 4 4 4 6 8 9 10 11 11 12 13 14 16 18 19 21 23 24 26 27 28 29 30 31 32 34 35 36 37 38 39 40 41 43 44 45
15 15 14 13 12 11 10 9 7 5 4 3 2 3 5 6 8 10 10 11 11 12 13 15 17 19 21 22 24 25 26 28 28 29 30 32 33 34 35 36 38 39 41 43 44 46 47 49 50
13 12 11 9 8 7 6 4 3 1 2 3 5 6 8 9 10 11 11 11 12 13 15 17 20 22 23 25 26 27 28 28 29 30 31 33 34 36 37 39 40 42 44 47 49 50 52 54 55
9 8 6 4 4 3 2 2 3 4 6 7 8 9 9 10 10 11 12 13 14 16 19 21 23 25 26 26 27 28 29 29 30 31 33 35 36 38 39 41 43 45 48 50 52 54 56 59 61
5 5 3 4 5 5 5 7 7 8 8 10 10 9 9 9 10 11 13 15 17 20 22 24 25 25 26 27 28 29 29 31 32 34 36 37 39 41 42 44 46 48 51 54 56 59 62 65 67
4 4 4 7 8 8 8 8 8 8 8 8 9 8 8 10 11 13 16 18 20 22 23 24 24 25 26 27 28 29 31 33 35 37 39 40 42 43 45 47 49 52 55 58 61 64 67 71 74
9 8 8 9 9 9 8 7 6 6 6 7 8 8 9 11 14 16 18 20 21 21 22 23 23 25 26 28 29 31 33 36 38 40 41 43 44 46 48 50 53 55 58 62 66 69 73 77 82
10 10 9 9 8 7 6 5 5 5 5 7 8 10 12 13 15 17 18 19 19 20 21 23 24 26 28 30 32 34 37 39 40 42 44 45 47 48 50 53 56 59 62 66 70 74 79 83 87
9 8 7 7 6 5 4 3 4 5 6 8 10 12 14 15 15 15 16 17 18 20 22 24 26 28 30 32 34 36 38 40 42 43 45 47 49 51 53 56 59 62 66 70 74 79 84 89 94
7 6 5 5 4 4 4 4 5 7 8 10 11 12 12 12 12 13 15 16 18 20 22 25 27 29 31 33 35 37 39 41 43 45 47 49 51 53 56 58 62 65 69 73 78 83 88 95 101
6 5 5 5 4 5 5 6 6 7 10 11 11 11 10 10 11 13 14 16 18 21 23 25 27 29 31 33 35 37 39 41 43 45 47 49 52 55 57 60 64 67 72 76 81 87 93 100 105
6 6 5 5 5 5 6 6 6 6 8 8 9 9 9 10 11 13 15 17 19 22 24 26 27 29 31 33 35 37 39 41 43 45 47 50 53 56 58 61 65 69 74 79 84 91 98 102 104
6 6 6 6 5 6 5 4 4 5 5 6 6 7 8 9 11 13 15 18 21 23 25 27 29 30 32 34 36 38 40 42 44 46 48 51 53 56 59 63 67 71 76 82 88 95 100 101 99
7 7 6 6 6 5 5 4 3 4 5 4 5 6 7 8 11 14 16 19 22 24 27 29 31 32 33 35 37 40 42 44 47 49 51 53 55 57 61 64 68 73 79 85 92 97 98 96 93
9 8 7 6 6 5 5 4 4 4 4 4 5 5 7 8 11 14 16 19 22 25 28 31 33 35 36 38 39 42 44 47 49 52 54 55 57 59 62 66 71 76 82 88 94 97 95 91 88
9 9 9 8 7 7 6 5 5 5 4 5 6 7 7 9 10 14 17 20 23 26 29 32 35 38 39 41 42 44 46 49 52 54 57 59 60 62 65 69 73 79 85 91 95 94 91 87 84
11 11 11 11 10 9 8 8 7 7 7 7 7 8 10 10 12 15 18 21 24 27 30 34 37 40 42 45 46 48 49 52 54 57 60 62 63 65 67 71 76 81 87 92 93 91 86 83 80
14 14 14 13 12 12 11 10 10 10 9 10 10 10 11 13 15 18 21 24 26 29 32 35 38 42 45 47 49 51 53 54 57 59 62 64 66 67 70 73 78 84 89 91 90 87 83 80 77
17 16 15 15 15 15 15 14 13 13 13 13 14 14 14 15 18 20 23 26 28 31 34 37 40 43 46 49 52 54 55 57 59 62 65 67 69 70 72 76 80 86 89 89 87 84 81 77 74
18 18 18 18 18 18 18 17 16 16 16 17 17 18 18 18 20 23 25 28 30 33 36 39 41 45 48 51 53 56 58 59 61 64 67 69 71 72 74 77 82 86 88 87 84 80 78 76 73
20 21 21 21 21 21 21 21 18 19 19 20 22 22 22 22 24 26 28 30 33 36 38 41 43 46 49 52 55 57 59 61 63 65 68 71 72 74 76 79 83 86 87 84 80 78 76 74 73
21 23 24 24 24 23 23 24 20 21 22 23 25 25 26 27 27 29 31 33 36 38 41 43 45 48 50 53 55 58 60 63 65 67 69 72 74 75 77 80 83 85 84 81 78 75 73 72 70
23 24 27 28 28 26 26 28 21 23 25 26 27 28 29 30 31 32 34 36 38 41 43 45 47 49 51 54 56 58 60 63 66 68 70 73 74 76 78 81 83 84 82 78 75 73 71 70 68
24 26 28 32 32 30 30 31 24 26 27 28 29 30 32 33 34 34 36 38 40 43 45 47 49 51 53 55 57 58 61 63 66 69 71 73 75 76 78 80 82 82 80 76 73 71 70 68 66
27 28 30 34 35 36 34 33 28 27 29 31 32 33 35 36 36 37 38 40 42 45 47 49 51 53 54 55 57 59 61 63 66 69 71 73 75 77 78 80 82 81 78 74 71 69 68 66 64
29 30 32 35 38 39 38 34 30 29 31 33 34 35 37 38 39 40 41 42 45 47 50 51 53 55 56 56 57 59 61 63 65 69 72 73 75 77 78 79 81 80 77 73 69 68 66 64 62
30 31 33 36 39 42 43 37 30 31 34 36 37 39 41 42 41 42 44 45 47 49 52 54 56 57 58 57 58 59 60 62 65 68 72 73 75 76 77 78 79 78 76 71 68 66 65 63 60
30 31 33 37 39 42 46 38 29 32 35 38 40 43 45 45 44 45 47 48 50 52 54 56 58 59 59 58 58 59 60 62 64 67 71 73 74 75 76 77 78 77 74 70 67 65 64 61 58
Wind_Direction
104 108 106 116 122 121 117 117 112 108 105 103 100 96 86 72 55 30 7 354 345 338 332 327 323 319 317 316 315 313 311 309 308 306 305 303 302 300 299 298 297 296 295 295 294 293 292 290 287
93 93 94 97 102 108 109 109 106 104 100 97 93 87 75 50 17 353 343 339 334 331 327 323 320 318 317 316 314 312 309 307 305 304 303 302 301 300 299 298 298 297 296 295 293 292 291 290 289
97 99 98 101 103 106 107 107 105 102 98 92 82 58 27 358 336 329 328 328 327 326 323 320 318 316 315 313 311 308 306 304 303 302 301 300 300 300 300 300 300 299 298 297 295 294 292 290 288
101 102 103 106 110 108 109 109 106 100 88 64 17 344 335 327 319 317 319 321 322 320 318 316 313 311 310 309 307 305 304 303 302 301 302 302 302 302 302 302 302 301 300 299 297 296 293 291 289
97 98 100 106 109 107 107 102 90 54 343 325 320 316 316 315 313 313 315 316 316 316 314 312 310 309 308 307 306 305 304 303 303 303 303 304 304 304 304 304 303 303 301 300 298 296 294 292 289
94 91 83 72 71 66 39 356 333 320 315 313 312 311 312 310 309 310 313 314 315 315 313 312 311 310 310 309 308 307 306 306 306 307 307 307 306 306 305 305 304 303 301 300 298 296 294 292 290
66 60 30 349 344 339 330 322 316 313 310 306 307 310 310 308 307 308 310 312 314 313 312 311 312 312 312 312 311 311 310 310 310 310 309 309 308 307 306 305 304 303 302 301 300 299 297 296 293
3 350 323 316 320 321 319 316 313 312 308 297 299 306 307 304 304 306 308 311 312 312 312 313 314 315 316 315 315 314 313 312 312 311 310 309 309 308 307 306 305 305 304 303 303 302 301 299 298
328 320 315 313 315 316 317 316 309 307 301 292 298 305 305 304 305 308 310 312 314 316 317 318 320 321 321 320 318 317 316 315 314 313 312 310 309 308 308 307 306 305 305 305 305 305 304 302 300
316 314 312 313 316 317 318 317 308 303 298 296 301 305 306 307 309 312 314 317 321 324 326 327 327 327 326 324 322 320 318 317 315 314 313 311 310 309 308 307 307 307 307 307 307 307 305 304 302
307 307 305 304 308 309 312 311 302 299 299 300 302 305 309 314 318 321 322 326 329 332 333 333 332 331 329 327 324 322 320 318 316 314 313 312 311 310 309 309 309 309 309 309 309 308 307 305 303
301 298 293 293 296 299 304 305 301 302 304 306 309 314 321 327 331 332 334 336 338 338 338 336 334 332 331 329 327 325 323 320 318 315 314 312 311 311 311 311 311 310 310 310 310 309 308 307 305
292 288 287 290 294 297 304 308 309 310 314 319 327 336 342 343 343 343 342 342 341 340 339 337 335 335 334 332 330 328 326 323 320 318 316 314 313 312 312 312 312 312 312 312 311 310 309 307 305
283 283 287 289 293 297 303 310 319 323 326 332 339 347 350 350 350 348 346 344 342 340 339 338 337 337 336 335 334 333 331 329 326 323 320 318 316 314 313 313 314 314 314 313 312 311 311 309 307
273 277 283 286 290 298 308 328 340 332 337 343 349 353 355 354 352 351 349 346 344 342 341 339 338 338 337 337 336 336 335 333 331 328 325 322 319 317 316 316 316 316 315 315 314 314 314 312 310
265 271 276 280 288 293 304 328 345 333 341 351 354 355 354 354 353 351 350 350 349 347 345 343 341 338 337 336 335 335 335 335 334 333 329 326 323 320 319 318 318 318 317 317 318 318 317 315 313
263 267 271 275 283 285 286 300 314 321 330 338 341 340 342 347 350 351 353 353 352 350 349 347 344 342 339 336 335 334 334 335 335 334 332 329 326 324 322 321 320 320 320 321 321 321 320 318 316
257 262 270 273 270 270 270 276 285 299 310 317 322 325 332 341 345 349 351 352 351 350 349 348 346 344 342 340 337 336 335 334 334 334 334 332 329 327 325 324 323 323 324 325 325 324 323 321 319
259 255 255 257 258 261 264 268 277 287 297 302 306 314 324 331 338 343 346 347 348 348 347 346 346 345 343 342 340 338 337 335 334 334 334 333 331 329 327 326 326 327 328 328 328 327 325 324 322
258 253 252 254 256 260 264 268 275 281 289 295 299 307 316 324 330 335 339 341 343 344 344 344 344 343 343 342 341 340 338 336 335 334 334 334 332 331 330 329 329 330 331 331 330 329 328 327 326
261 259 259 259 261 263 266 269 275 280 286 292 298 304 311 319 324 328 332 335 337 339 340 341 341 341 341 341 340 340 338 336 335 335 334 334 334 333 332 331 332 333 334 333 332 331 330 330 329
267 265 264 263 264 266 269 271 277 283 287 291 296 301 307 313 319 323 326 329 332 334 336 337 338 339 340 340 339 339 338 336 335 335 335 335 335 335 334 333 334 335 336 335 333 332 332 332 332
272 269 267 265 265 267 271 273 277 283 287 291 295 300 305 310 314 318 321 325 327 330 333 335 336 337 338 338 337 337 337 336 336 336 336 336 336 336 336 335 336 337 338 337 335 334 334 334 334
276 273 270 267 266 267 269 273 278 282 286 290 294 299 304 307 311 314 317 321 324 327 329 332 334 334 335 335 335 335 335 335 336 336 336 337 337 337 337 337 338 339 339 338 336 336 336 336 336
280 276 274 270 267 268 267 270 278 279 284 288 293 298 302 305 308 311 315 318 321 324 326 329 331 332 333 333 333 333 334 335 336 336 336 337 338 339 339 339 340 341 340 339 338 337 337 337 337
281 277 275 274 272 269 267 270 276 278 283 287 292 296 299 302 305 308 312 315 318 320 323 325 328 329 330 331 331 332 332 334 335 336 337 337 339 339 340 340 341 342 342 341 339 339 339 338 339
282 277 275 275 275 273 271 273 274 277 282 286 290 293 294 298 302 305 309 312 315 318 320 323 325 326 328 329 330 330 331 332 334 336 337 338 339 340 340 341 343 343 343 342 341 340 340 340 340
284 282 279 277 278 278 277 276 278 276 278 284 288 289 291 295 299 303 307 310 313 316 318 320 322 324 325 327 328 328 329 331 333 335 337 338 339 340 341 342 344 344 344 343 343 342 342 341 340
285 284 282 281 280 281 282 281 281 280 281 284 287 288 290 294 298 301 305 308 311 313 315 317 320 322 323 325 326 327 328 329 332 334 336 338 339 340 341 342 344 345 345 344 344 343 343 343 342
285 284 283 282 282 282 284 290 289 284 283 284 285 287 289 293 298 300 303 306 308 311 313 315 317 319 321 323 324 325 326 328 330 333 336 337 338 340 341 342 345 346 346 345 345 345 345 344 343